Regional Weather Roundup
Issued by NWS

Home | Current Version | Previous Version | Text Only | Print | Product List | Glossary Off
Versions: 1 2 3 4 5 6 7 8 9 10 11 12 13 14 15 16 17 18 19 20 21 22 23 24 25 26 27 28 29 30 31 32 33 34 35 36 37 38 39 40 41 42 43 44 45 46 47 48 49 50

000
ASUS43 KFSD 271010
RWRSD

WEATHER ROUNDUP FOR SOUTH DAKOTA
NATIONAL WEATHER SERVICE SIOUX FALLS SD
500 AM CDT MON APR 27 2015

NOTE: "FAIR" INDICATES FEW OR NO CLOUDS BELOW 12,000 FEET WITH NO
SIGNIFICANT WEATHER AND/OR OBSTRUCTIONS TO VISIBILITY.


SDZ001>005-009-010-012>017-271100-
NORTHWEST AND NORTH CENTRAL SOUTH DAKOTA

CITY           SKY/WX    TMP DP  RH WIND       PRES   REMARKS
BUFFALO          N/A     39  38  96 NW20      30.14S
FAITH            N/A     45  39  79 NE6       30.17R
MOBRIDGE       PTCLDY    39  34  82 NE3       30.15R
$$

SDZ012>016-024>037-041>051-057-063-072>074-271100-
SOUTHWEST AND SOUTH CENTRAL SOUTH DAKOTA

CITY           SKY/WX    TMP DP  RH WIND       PRES   REMARKS
RAPID CTY ARPT CLOUDY    45  43  93 N14       30.17S
PIERRE         PTCLDY    39  32  76 CALM      30.16R
CUSTER         CLOUDY    37  36  96 CALM      30.18S FOG
ELLSWORTH AFB  CLOUDY    44  44  97 N18       30.17S
PHILIP         CLOUDY    47  39  74 CALM      30.16R
PINE RIDGE     PTCLDY    37  34  89 CALM      30.17R
SPEARFISH      LGT RAIN  36  36 100 NW9       30.23R
WINNER         FAIR      44  29  55 CALM      30.16S
$$

SDZ004>011-016>023-039-040-271100-
NORTHEAST SOUTH DAKOTA

CITY           SKY/WX    TMP DP  RH WIND       PRES   REMARKS
ABERDEEN       PTCLDY    34  27  75 CALM      30.19R
WATERTOWN      CLEAR     34  22  61 CALM      30.18R
BROOKINGS      CLEAR     34  25  69 CALM      30.19S
SISSETON         N/A     33  25  72 NW3       30.18S
$$

SDZ017-020-022-023-036>040-048>070-271100-
SOUTHEAST SOUTH DAKOTA

CITY           SKY/WX    TMP DP  RH WIND       PRES   REMARKS
SIOUX FALLS    CLEAR     37  28  70 N3        30.16S
HURON          CLEAR     31  25  78 NW6       30.18R WCI  25
CHAMBERLAIN    CLEAR     41  33  73 N5        30.17S
MITCHELL       CLEAR     38  33  82 CALM      30.17S
YANKTON        CLEAR     41  27  56 CALM      30.15R
$$

ABBREVIATIONS USED IN REMARKS
   TC - TEMPERATURE IN CELSIUS
  WCI - WIND CHILL INDEX
   HX - HEAT INDEX
  VSB - VISIBILITY




USA.gov is the U.S. government's official web portal to all federal, state and local government web resources and services.